Regional Weather Roundup
Issued by NWS Sterling, VA

Home | Current Version | Previous Version | Text Only | Print | Product List | Glossary Off
Versions: 1 2 3 4 5 6 7 8 9 10 11 12 13 14 15 16 17 18 19 20 21 22 23 24 25 26 27 28 29 30 31 32 33 34 35 36 37 38 39 40 41 42 43 44 45 46 47 48 49 50

000
ASUS41 KLWX 241310
RWRLWX

REGIONAL WEATHER ROUNDUP
NATIONAL WEATHER SERVICE BALTIMORE MD/WASHINGTON DC
900 AM EDT SUN MAY 24 2015

Note: "FAIR" indicates few or no clouds below 12,000 feet
with no significant weather and/or obstructions to visibility.
 TC=TEMPERATURE CELSIUS

 * =Non NWS site. Station does not report precipitation (e.g. rain,
    snow, etc.), thunder, or fog.

DCZ001-MDZ009-015-VAZ040>042-051-053>054-241400-
WASHINGTON METRO

CITY           SKY/WX    TMP DP  RH WIND       PRES   REMARKS
WASHINGTON NAT SUNNY     66  53  63 S7        30.40F
DULLES         MOSUNNY   62  52  69 S7        30.39F
ANDREWS AFB    SUNNY     65  51  61 S8        30.39S
FT BELVOIR     SUNNY     64  54  68 SW5       30.40S
QUANTICO       SUNNY     64  53  67 S8        30.41S
COLLEGE PARK*  SUNNY     64  52  63 SW3       30.39F
LEESBURG*      SUNNY     63  54  72 S5        30.40S
MANASSAS*      SUNNY    N/A N/A N/A CALM      30.40F
GAITHERSBURG*  SUNNY     63  52  67 SW5       30.43S

$$

MDZ006>007-011-014-241400-
BALTIMORE METRO

CITY           SKY/WX    TMP DP  RH WIND       PRES   REMARKS
BWI AIRPORT    MOSUNNY   63  51  65 SW5       30.39S
MD SCIENCE CTR   N/A     63  49  60 MISG      30.40S
MARTIN STATE   SUNNY     64  54  68 S9        30.42R
ANNAPOLIS      SUNNY     64  48  56 S7        30.40S
FORT MEADE*    SUNNY     61  52  72 CALM      30.42S

$$

MDZ012-015-019>023-241400-
MARYLAND EASTERN SHORE

CITY           SKY/WX    TMP DP  RH WIND       PRES   REMARKS
OCEAN CITY     SUNNY     66  47  50 SW9       30.43R
SALISBURY      MOSUNNY   65  51  60 S10       30.43R
BAY BRIDGE AP*   N/A    N/A N/A N/A S7        30.41S
CAMBRIDGE*     SUNNY     66  57  72 SW7       30.41S
EASTON*        MOSUNNY   66  57  72 SW12G21   30.45R

$$

MDZ017>025-241400-
SOUTHERN MARYLAND

CITY           SKY/WX    TMP DP  RH WIND       PRES   REMARKS
PATUXENT RIVER MOSUNNY   67  50  54 S9        30.41S
ST INIGOES     SUNNY     65  52  62 S9        30.41S
LEONARDTOWN*   SUNNY     64  50  59 S7        30.43S

$$

MDZ003>005-241400-
NORTH CENTRAL MARYLAND

CITY           SKY/WX    TMP DP  RH WIND       PRES   REMARKS
FREDERICK*     SUNNY     63  54  72 CALM      30.41F
HAGERSTOWN APT SUNNY     62  46  55 SW5       30.39S
WESTMINSTER*   SUNNY     61  50  67 SW3       30.39S

$$

MDZ501>502-241400-
WESTERN MARYLAND

CITY           SKY/WX    TMP DP  RH WIND       PRES   REMARKS
OAKLAND*       SUNNY     63  45  51 S5        30.42S
CUMBERLAND*    SUNNY     54  43  66 CALM      30.45R

$$

VAZ025>031-241400-
SHENANDOAH VALLEY

CITY           SKY/WX    TMP DP  RH WIND       PRES   REMARKS
WINCHESTER*    SUNNY     63  46  55 CALM      30.39S
FRONT ROYAL*   FAIR      63  54  72 SE3       30.38S
LURAY*         FAIR      63  54  72 SW3       30.39F
NEW MARKET*    FAIR      60  52  77 CALM      30.39F
STAUNTON*      SUNNY     61  53  75 CALM      30.42S
WAYNESBORO*    FAIR      63  52  68 CALM      30.40S

$$

WVZ021-048>050-054>055-241400-
EASTERN WEST VIRGINIA PANHANDLE

CITY           SKY/WX    TMP DP  RH WIND       PRES   REMARKS
MARTINSBURG    SUNNY     60  47  61 CALM      30.39S
PETERSBURG*    SUNNY     57  47  69 CALM      30.41F

$$

VAZ036>039-050-241400-
CENTRAL FOOTHILLS

CITY           SKY/WX    TMP DP  RH WIND       PRES   REMARKS
CHARLOTTESVILL SUNNY     62  52  69 VRB3      30.40R
CULPEPER*      SUNNY     62  53  73 SW6       30.40F
ORANGE*        SUNNY     64  55  72 S6        30.41S
GORDONSVILLE*  FAIR      62  53  74 S6        30.39F
WARRENTON*     FAIR      64  56  75 SW3       30.39S

$$

VAZ055>057-241400-
NORTH AND CENTRAL PIEDMONT

CITY           SKY/WX    TMP DP  RH WIND       PRES   REMARKS
FREDERICKSBRG* SUNNY     66  55  69 S8        30.39F
STAFFORD*      SUNNY     65  53  65 S8        30.44S

$$

NCZ024-NYZ072-PAZ021-071-VAZ022-071-241400-
OTHER REGIONAL OBSERVATIONS

CITY           SKY/WX    TMP DP  RH WIND       PRES   REMARKS
NEW YORK CITY  SUNNY     62  42  47 W8G17     30.39S
PHILADELPHIA   MOSUNNY   64  53  67 SW10      30.41R
PITTSBURGH     MOSUNNY   61  45  55 S5        30.35F
ROANOKE        SUNNY     62  51  67 CALM      30.44S
RICHMOND       MOSUNNY   66  53  63 S10       30.42S
RALEIGH        MOSUNNY   70  60  70 VRB5      30.43S

$$

ANZ530>537-241400-
MARINE OBSERVATIONS

STATION/POSITION TIME  TEMP    WIND        PRES
                       AIR SEA DIR/SP/G
                 (UTC) (F)     (DEG/KT/KT) (MB)
THOMAS PT LIGHT  1300   62 64  190/ 10/ 11 1030.2F
BALT KEY BRIDGE  1200   59     170/  4/  5 1029.2R
LEWISETTA        1200   62 68              1029.6R
SOLOMONS ISLAND  1200      67                N/A
PINEY POINT      1200          210/  7/  7   N/A

$$




USA.gov is the U.S. government's official web portal to all federal, state and local government web resources and services.